1485439201.2,20568,9.56,73870.8,-5.07,-38.43,-38.23,0,*5D
1485439202.47,20569,9.56,73868.5,-5.05,-37.81,-37.63,0,*54
1485439203.75,20570,9.56,73870.5,-5.07,-37.69,-37.69,0,*52
1485439204.98,20571,9.56,73870.5,-5.05,-37.63,-37.45,0,*55
1485439206.19,20572,9.56,73870.0,-5.05,-37.15,-36.97,0,*59
1485439207.39,20573,9.56,73874.0,-5.05,-37.45,-37.27,0,*57
1485439208.6,20574,9.63,73874.3,-5.05,-37.33,-37.33,0,*54
1485439209.86,20575,9.56,73874.8,-5.05,-37.69,-37.69,0,*55
1485439211.11,20576,9.56,73870.8,-5.05,-37.69,-37.69,0,*56
1485439212.35,20577,9.56,73870.0,-5.05,-37.51,-37.33,0,*53
1485439213.57,20578,9.56,73870.3,-5.05,-38.23,-38.05,0,*5C
1485439214.85,20579,9.56,73870.3,-5.03,-37.93,-37.93,0,*5F
1485439216.08,20580,9.56,73872.0,-5.03,-38.17,-38.05,0,*5A
1485439217.35,20581,9.56,73872.0,-5.05,-37.69,-37.63,0,*54
1485439218.58,20582,9.56,73874.3,-5.05,-38.05,-37.99,0,*57
1485439219.83,20583,9.56,73874.0,-5.07,-37.63,-37.45,0,*5A
1485439221.07,20584,9.56,73872.8,-5.05,-37.33,-37.09,0,*52
1485439222.3,20585,9.56,73876.0,-5.05,-37.51,-37.45,0,*5F
1485439223.56,20586,9.56,73876.5,-5.05,-37.63,-37.51,0,*58
1485439224.77,20587,9.56,73874.5,-5.05,-37.45,-37.33,0,*59
1485439226.0,20588,9.56,73874.8,-5.05,-37.27,-37.09,0,*5B
1485439227.21,20589,9.56,73874.5,-5.05,-37.33,-37.27,0,*53
1485439228.41,20590,9.56,73874.3,-5.05,-37.33,-37.27,0,*5B
1485439229.7,20591,9.56,73872.5,-5.03,-37.39,-37.21,0,*50
1485439230.95,20592,9.56,73872.5,-5.03,-37.27,-37.21,0,*5C
1485439232.18,20593,9.56,73874.0,-5.03,-37.45,-37.45,0,*5B
1485439233.44,20594,9.56,73874.8,-5.03,-37.21,-37.03,0,*5C
1485439234.68,20595,9.56,73872.5,-5.05,-36.91,-36.67,0,*52
1485439235.93,20596,9.56,73874.8,-5.03,-37.03,-36.91,0,*54
1485439237.16,20597,9.56,73870.8,-5.01,-37.45,-37.39,0,*56
1485439238.37,20598,9.56,73868.0,-5.01,-37.75,-37.57,0,*52
1485439239.6,20599,9.56,73870.3,-5.03,-37.57,-37.57,0,*51
1485439240.86,20600,9.56,73870.5,-5.03,-37.81,-37.75,0,*59
1485439242.14,20601,9.56,73868.5,-5.03,-37.99,-37.99,0,*53
1485439243.41,20602,9.56,73868.5,-5.05,-37.81,-37.69,0,*50
1485439244.63,20603,9.56,73874.3,-5.03,-37.27,-37.27,0,*51
1485439245.84,20604,9.56,73870.5,-5.01,-37.75,-37.57,0,*54
1485439247.09,20605,9.56,73870.3,-5.03,-37.63,-37.57,0,*50
1485439248.35,20606,9.56,73868.5,-5.03,-37.27,-37.09,0,*58
1485439249.61,20607,9.56,73868.0,-5.03,-37.09,-37.03,0,*5F
1485439250.86,20608,9.56,73868.5,-5.03,-37.45,-37.39,0,*51
1485439252.12,20609,9.56,73870.5,-5.03,-37.27,-37.09,0,*57
1485439253.37,20610,9.56,73872.3,-5.03,-37.27,-37.09,0,*5F
1485439254.62,20611,9.56,73872.5,-5.03,-37.39,-37.27,0,*5D
1485439255.85,20612,9.56,73870.5,-5.01,-37.45,-37.39,0,*58
1485439257.11,20613,9.56,73866.0,-5.03,-37.27,-37.21,0,*56
1485439258.31,20614,9.63,73876.0,-5.01,-37.57,-37.45,0,*56
1485439259.54,20615,9.56,73872.5,-5.01,-38.35,-38.23,0,*53
1485439260.74,20616,9.56,73870.3,-5.01,-38.17,-38.05,0,*54
1485439262.03,20617,9.56,73870.8,-5.03,-37.81,-37.93,0,*57
1485439263.25,20618,9.63,73872.8,-5.03,-38.05,-38.05,0,*5B
1485439264.53,20619,9.56,73870.8,-5.03,-38.11,-37.93,0,*5F
1485439265.78,20620,9.56,73870.0,-5.03,-37.63,-37.45,0,*54
1485439267.04,20621,9.56,73868.0,-5.03,-37.81,-37.75,0,*5A
1485439268.29,20622,9.56,73866.5,-5.03,-38.23,-38.17,0,*55
1485439269.55,20623,9.56,73870.0,-5.05,-38.23,-38.11,0,*54
1485439270.78,20624,9.56,73872.5,-5.07,-38.61,-38.43,0,*50
1485439272.07,20625,9.56,73868.8,-5.07,-37.81,-37.81,0,*51
1485439273.3,20626,9.56,73868.5,-5.07,-37.33,-37.27,0,*57
1485439274.57,20627,9.56,73874.0,-5.07,-37.81,-37.87,0,*55
1485439275.85,20628,9.56,73870.3,-5.07,-38.23,-38.23,0,*5C
1485439277.14,20629,9.56,73868.8,-5.07,-38.29,-38.23,0,*57
1485439278.39,20630,9.56,73870.0,-5.07,-37.63,-37.45,0,*51
1485439279.65,20631,9.56,73874.0,-5.05,-37.99,-37.99,0,*56
1485439280.9,20632,9.56,73868.8,-5.07,-37.63,-37.45,0,*53
1485439282.13,20633,9.56,73874.3,-5.07,-38.05,-38.05,0,*56
1485439283.39,20634,9.56,73870.0,-5.07,-37.87,-37.81,0,*57
1485439284.62,20635,9.56,73874.0,-5.09,-37.75,-37.69,0,*53
1485439285.86,20636,9.63,73874.3,-5.09,-37.93,-37.87,0,*58
1485439287.06,20637,9.56,73872.3,-5.09,-37.57,-37.33,0,*5E
1485439288.29,20638,9.56,73872.8,-5.09,-37.57,-37.51,0,*55
1485439289.59,20639,9.56,73872.0,-5.07,-37.81,-37.63,0,*50
1485439290.88,20640,9.56,73874.3,-5.07,-37.63,-37.63,0,*52
1485439292.16,20641,9.56,73872.8,-5.07,-37.69,-37.51,0,*58
1485439293.44,20642,9.63,73876.8,-5.07,-37.69,-37.69,0,*50
1485439294.72,20643,9.56,73874.8,-5.07,-37.99,-37.99,0,*51
1485439296.01,20644,9.56,73872.5,-5.07,-37.63,-37.63,0,*56
1485439297.26,20645,9.56,73874.8,-5.07,-37.63,-37.45,0,*53
1485439298.51,20646,9.56,73876.0,-5.07,-37.51,-37.27,0,*55
1485439299.74,20647,9.56,73876.3,-5.07,-37.33,-37.15,0,*51
1485439301.02,20648,9.63,73876.8,-5.07,-37.63,-37.69,0,*50
1485439302.31,20649,9.56,73874.5,-5.07,-37.81,-37.81,0,*5B
1485439303.54,20650,9.56,73872.0,-5.09,-38.17,-38.11,0,*5B
1485439304.77,20651,9.63,73878.3,-5.09,-38.05,-37.93,0,*5C
1485439306.0,20652,9.56,73872.8,-5.09,-37.39,-37.33,0,*55
1485439307.21,20653,9.56,73870.5,-5.09,-37.33,-37.15,0,*5A
1485439308.44,20654,9.56,73874.5,-5.09,-37.39,-37.33,0,*53
1485439309.67,20655,9.56,73872.0,-5.09,-37.51,-37.33,0,*5C
1485439310.9,20656,9.63,73872.5,-5.09,-37.39,-37.15,0,*55
1485439312.15,20657,9.56,73872.3,-5.09,-37.21,-37.15,0,*5D
1485439313.38,20658,9.56,73872.8,-5.09,-37.57,-37.51,0,*53
1485439314.66,20659,9.56,73872.8,-5.07,-37.69,-37.69,0,*5A
1485439315.94,20660,9.56,73876.3,-5.07,-37.69,-37.63,0,*5A
1485439317.17,20661,9.56,73874.5,-5.07,-37.45,-37.33,0,*50
1485439318.4,20662,9.56,73872.5,-5.07,-37.33,-37.15,0,*56
1485439319.63,20663,9.63,73874.8,-5.05,-37.63,-37.45,0,*55
1485439320.86,20664,9.56,73872.5,-5.07,-37.45,-37.27,0,*50
1485439322.11,20665,9.56,73872.3,-5.07,-37.51,-37.45,0,*50
1485439323.33,20666,9.56,73874.5,-5.07,-37.45,-37.27,0,*52
1485439324.62,20667,9.56,73872.0,-5.07,-37.81,-37.69,0,*51
1485439325.88,20668,9.56,73870.8,-5.07,-37.09,-36.97,0,*5E
1485439327.13,20669,9.63,73874.8,-5.07,-37.33,-37.09,0,*50
1485439328.38,20670,9.63,73876.5,-5.07,-37.51,-37.45,0,*54
1485439329.63,20671,9.63,73874.8,-5.07,-37.63,-37.45,0,*54
1485439330.86,20672,9.63,73872.0,-5.07,-37.15,-36.97,0,*58
1485439332.09,20673,9.56,73874.5,-5.07,-37.15,-36.97,0,*59
1485439333.34,20674,9.63,73872.3,-5.07,-37.51,-37.33,0,*51
1485439334.58,20675,9.56,73872.0,-5.05,-37.51,-37.33,0,*52
1485439335.86,20676,9.56,73872.8,-5.07,-37.81,-37.69,0,*51
1485439337.11,20677,9.56,73872.5,-5.07,-37.63,-37.27,0,*56
1485439338.35,20678,9.56,73874.8,-5.05,-37.15,-37.09,0,*56
1485439339.64,20679,9.56,73874.5,-5.07,-37.81,-37.81,0,*58
1485439340.93,20680,9.63,73876.5,-5.07,-37.69,-37.51,0,*55
1485439342.18,20681,9.56,73872.3,-5.09,-37.51,-37.39,0,*5F
1485439343.44,20682,9.56,73870.0,-5.09,-37.93,-37.93,0,*52
1485439344.67,20683,9.63,73876.3,-5.09,-37.75,-37.69,0,*5E
1485439345.9,20684,9.56,73872.3,-5.09,-37.75,-37.51,0,*52
1485439347.13,20685,9.56,73872.5,-5.09,-38.11,-38.05,0,*50
1485439348.34,20686,9.56,73874.3,-5.09,-38.05,-37.87,0,*53
1485439349.55,20687,9.56,73872.8,-5.09,-37.57,-37.57,0,*57
1485439350.75,20688,9.56,73872.3,-5.09,-37.33,-37.15,0,*5C
1485439351.99,20689,9.56,73872.5,-5.09,-37.57,-37.21,0,*58
1485439353.21,20690,9.56,73874.8,-5.09,-37.87,-37.87,0,*51
1485439354.48,20691,9.56,73878.3,-5.11,-38.11,-37.93,0,*5C
1485439355.74,20692,9.63,73874.8,-5.09,-37.69,-37.51,0,*58
1485439357.0,20693,9.63,73872.8,-5.09,-37.51,-37.21,0,*55
1485439358.26,20694,9.56,73878.0,-5.09,-37.51,-37.21,0,*52
1485439359.49,20695,9.63,73878.3,-5.09,-37.57,-37.39,0,*5C
1485439360.75,20696,9.63,73874.3,-5.11,-37.57,-37.39,0,*56
1485439361.99,20697,9.63,73876.3,-5.09,-37.69,-37.57,0,*5B
1485439363.25,20698,9.56,73870.8,-5.09,-37.51,-37.39,0,*57
1485439364.5,20699,9.63,73872.0,-5.09,-37.51,-37.21,0,*5F
1485439365.79,20700,9.56,73872.8,-5.11,-37.39,-37.21,0,*59
1485439367.05,20701,9.56,73872.8,-5.11,-37.75,-37.63,0,*56
1485439368.26,20702,9.56,73874.8,-5.09,-37.33,-37.15,0,*5F
1485439369.51,20703,9.63,73876.8,-5.11,-37.57,-37.39,0,*5B
1485439370.72,20704,9.63,73872.8,-5.09,-37.75,-37.57,0,*5D
1485439371.98,20705,9.56,73870.3,-5.11,-37.45,-37.21,0,*57
1485439373.26,20706,9.56,73870.8,-5.11,-37.63,-37.39,0,*59
1485439374.49,20707,9.56,73868.3,-5.09,-37.51,-37.33,0,*5A
1485439375.72,20708,9.63,73870.5,-5.09,-37.57,-37.39,0,*59
1485439376.93,20709,9.56,73870.0,-5.09,-37.57,-37.33,0,*52
1485439378.16,20710,9.63,73870.3,-5.09,-37.57,-37.51,0,*5E
1485439379.37,20711,9.56,73874.0,-5.09,-37.75,-37.75,0,*59
1485439380.59,20712,9.63,73872.3,-5.11,-37.75,-37.45,0,*50
1485439381.83,20713,9.63,73872.5,-5.09,-37.57,-37.51,0,*5D
1485439383.06,20714,9.56,73870.8,-5.09,-37.39,-37.15,0,*52
1485439384.27,20715,9.63,73874.5,-5.09,-37.33,-37.15,0,*59
1485439385.5,20716,9.63,73874.5,-5.09,-37.45,-37.21,0,*5C
1485439386.73,20717,9.56,73872.3,-5.09,-37.57,-37.39,0,*57
1485439387.97,20718,9.63,73874.5,-5.09,-37.93,-37.75,0,*58
1485439389.2,20719,9.56,73870.0,-5.09,-37.51,-37.33,0,*55
1485439390.43,20720,9.63,73874.3,-5.09,-37.51,-37.15,0,*5B
1485439391.69,20721,9.63,73872.3,-5.11,-37.21,-36.85,0,*5C
1485439392.93,20722,9.63,73874.3,-5.09,-36.61,-36.43,0,*59
1485439394.16,20723,9.56,73872.0,-5.09,-37.21,-37.03,0,*58
1485439395.4,20724,9.56,73872.3,-5.09,-37.21,-37.03,0,*5F
1485439396.69,20725,9.56,73874.0,-5.11,-37.21,-36.79,0,*5B
1485439397.92,20726,9.63,73876.5,-5.09,-37.51,-37.15,0,*5D
1485439399.16,20727,9.56,73874.5,-5.09,-36.97,-36.61,0,*55
1485439400.37,20728,9.63,73874.5,-5.09,-36.97,-36.97,0,*53
1485439401.57,20729,9.63,73876.8,-5.09,-37.33,-37.03,0,*51
1485439402.81,20730,9.56,73872.8,-5.09,-37.39,-37.15,0,*54
1485439404.05,20731,9.56,73872.3,-5.09,-37.21,-37.15,0,*5C
1485439405.29,20732,9.56,73874.5,-5.09,-37.21,-37.15,0,*5F
1485439406.49,20733,9.63,73874.3,-5.09,-37.57,-37.33,0,*5B
1485439407.75,20734,9.63,73874.5,-5.11,-37.63,-37.27,0,*57
1485439408.96,20735,9.63,73878.0,-5.09,-36.97,-36.73,0,*55
1485439410.19,20736,9.63,73874.8,-5.09,-37.03,-36.79,0,*50
1485439411.39,20737,9.63,73876.3,-5.09,-37.33,-37.03,0,*5E
1485439412.63,20738,9.56,73870.8,-5.09,-37.51,-37.15,0,*52
1485439413.86,20739,9.56,73872.3,-5.09,-37.39,-37.15,0,*5D
1485439415.09,20740,9.63,73878.3,-5.07,-37.27,-36.85,0,*5A
1485439416.33,20741,9.56,73874.0,-5.09,-37.39,-37.15,0,*52
1485439417.59,20742,9.56,73872.8,-5.09,-37.21,-36.91,0,*55
1485439418.82,20743,9.56,73872.3,-5.07,-37.15,-36.73,0,*51
1485439420.05,20744,9.56,73872.0,-5.07,-37.27,-36.97,0,*5D
1485439421.28,20745,9.63,73874.3,-5.07,-37.27,-36.97,0,*5C
1485439422.54,20746,9.56,73872.0,-5.07,-37.09,-36.73,0,*59
1485439423.77,20747,9.63,73878.0,-5.07,-37.15,-36.97,0,*5F
1485439425.02,20748,9.63,73878.8,-5.07,-37.51,-37.27,0,*5A
1485439426.28,20749,9.63,73874.8,-5.07,-37.45,-37.09,0,*52
1485439427.53,20750,9.63,73878.8,-5.07,-37.51,-37.15,0,*52
1485439428.79,20751,9.56,73874.5,-5.09,-37.51,-37.21,0,*5A
1485439430.03,20752,9.63,73878.0,-5.09,-37.51,-37.15,0,*5E
1485439431.27,20753,9.63,73876.5,-5.09,-37.21,-37.03,0,*5F
1485439432.53,20754,9.56,73874.3,-5.09,-36.91,-36.61,0,*57
1485439433.76,20755,9.56,73874.3,-5.07,-36.97,-36.73,0,*5D
1485439435.0,20756,9.63,73874.0,-5.07,-36.97,-36.73,0,*5E
1485439436.25,20757,9.63,73874.8,-5.07,-37.63,-37.33,0,*50
1485439437.5,20758,9.56,73874.3,-5.07,-37.63,-37.27,0,*5A
1485439438.76,20759,9.63,73872.3,-5.07,-37.63,-37.33,0,*5E
1485439440.02,20760,9.63,73878.3,-5.07,-37.51,-37.15,0,*51
1485439441.25,20761,9.56,73874.8,-5.09,-37.57,-37.21,0,*5F
1485439442.48,20762,9.63,73874.8,-5.09,-37.51,-37.15,0,*5D
1485439443.77,20763,9.63,73874.0,-5.11,-37.63,-37.39,0,*5A
1485439444.98,20764,9.63,73872.0,-5.09,-37.33,-37.15,0,*5F
1485439446.21,20765,9.56,73870.3,-5.09,-36.91,-36.43,0,*55
1485439447.45,20766,9.56,73868.0,-5.09,-36.91,-36.73,0,*55
1485439448.68,20767,9.63,73874.8,-5.09,-36.79,-36.43,0,*51
1485439449.94,20768,9.63,73876.3,-5.09,-37.21,-36.79,0,*5B
1485439451.19,20769,9.63,73874.5,-5.07,-37.45,-37.09,0,*50
1485439452.45,20770,9.63,73874.5,-5.07,-37.09,-36.97,0,*56
1485439453.69,20771,9.63,73872.8,-5.07,-36.97,-36.55,0,*5F
1485439454.92,20772,9.63,73872.0,-5.07,-37.27,-36.85,0,*5B
1485439456.14,20773,9.63,73876.3,-5.07,-37.33,-36.85,0,*5F
1485439457.37,20774,9.63,73874.3,-5.09,-37.15,-36.79,0,*51
1485439458.6,20775,9.63,73872.0,-5.09,-37.03,-36.61,0,*5E
1485439459.83,20776,9.63,73876.3,-5.07,-37.27,-36.97,0,*5C
1485439461.09,20777,9.63,73874.5,-5.07,-37.45,-37.09,0,*5F
1485439462.35,20778,9.56,73870.3,-5.07,-36.91,-36.67,0,*51
1485439463.59,20779,9.63,73876.0,-5.07,-36.97,-36.67,0,*56
1485439464.83,20780,9.63,73874.5,-5.07,-36.97,-36.55,0,*51
1485439466.06,20781,9.63,73874.5,-5.05,-37.33,-37.09,0,*55
1485439467.32,20782,9.63,73874.5,-5.07,-37.33,-37.09,0,*54
1485439468.58,20783,9.63,73874.8,-5.05,-36.91,-36.49,0,*5B
1485439469.83,20784,9.63,73872.5,-5.07,-37.27,-37.09,0,*57
1485439471.09,20785,9.63,73874.3,-5.07,-37.33,-37.09,0,*53
1485439472.32,20786,9.63,73874.0,-5.07,-37.27,-36.85,0,*50
1485439473.57,20787,9.63,73876.0,-5.07,-37.63,-37.33,0,*5D
1485439474.81,20788,9.63,73874.3,-5.09,-37.51,-37.15,0,*59
1485439476.04,20789,9.63,73872.3,-5.09,-37.51,-37.15,0,*58
1485439477.27,20790,9.63,73876.3,-5.11,-37.57,-37.27,0,*5E
1485439478.47,20791,9.63,73878.3,-5.09,-37.33,-37.03,0,*52
1485439479.7,20792,9.63,73874.0,-5.11,-37.27,-36.97,0,*51
1485439480.95,20793,9.63,73876.0,-5.09,-36.91,-36.55,0,*5B
1485439482.18,20794,9.56,73872.8,-5.09,-37.21,-36.73,0,*52
1485439483.42,20795,9.63,73878.5,-5.09,-37.39,-37.03,0,*5C
1485439484.65,20796,9.63,73872.0,-5.07,-37.15,-36.67,0,*5C
1485439485.91,20797,9.63,73876.0,-5.07,-36.85,-36.37,0,*50
1485439487.19,20798,9.63,73878.0,-5.07,-36.91,-36.49,0,*53
1485439488.42,20799,9.63,73878.3,-5.07,-37.15,-36.67,0,*53
1485439489.7,20800,9.63,73878.0,-5.07,-36.91,-36.37,0,*54
1485439490.96,20801,9.63,73882.3,-5.07,-37.09,-36.73,0,*55
1485439492.22,20802,9.63,73882.5,-5.05,-36.91,-36.49,0,*5D
1485439493.49,20803,9.63,73882.0,-5.07,-37.09,-36.55,0,*53
1485439494.77,20804,9.63,73876.0,-5.07,-37.09,-36.49,0,*59
1485439495.98,20805,9.63,73876.0,-5.05,-36.73,-36.31,0,*59
1485439497.21,20806,9.63,73878.0,-5.07,-37.45,-36.97,0,*50
1485439498.45,20807,9.56,73874.0,-5.07,-37.27,-36.73,0,*5F
1485439499.68,20808,9.63,73874.5,-5.07,-37.45,-37.15,0,*55
1485439500.93,20809,9.56,73874.8,-5.07,-36.85,-36.49,0,*51
1485439502.17,20810,9.63,73876.8,-5.07,-36.73,-36.31,0,*5F
1485439503.43,20811,9.63,73876.5,-5.07,-36.97,-36.49,0,*5B
1485439504.66,20812,9.63,73872.0,-5.05,-37.69,-37.27,0,*53
1485439505.89,20813,9.63,73874.8,-5.07,-37.27,-36.85,0,*53
1485439507.14,20814,9.56,73872.8,-5.07,-37.63,-37.33,0,*58
1485439508.43,20815,9.63,73872.8,-5.07,-37.99,-37.51,0,*58
1485439509.65,20816,9.63,73874.0,-5.07,-37.33,-36.97,0,*50
1485439510.89,20817,9.63,73876.3,-5.07,-37.15,-36.73,0,*5F
1485439512.12,20818,9.63,73874.3,-5.07,-37.27,-36.73,0,*51
1485439513.4,20819,9.63,73876.0,-5.07,-37.09,-36.49,0,*55
1485439514.64,20820,9.63,73874.5,-5.07,-36.97,-36.55,0,*54
1485439515.9,20821,9.63,73874.0,-5.11,-37.03,-36.61,0,*59
1485439517.13,20822,9.63,73876.3,-5.07,-37.27,-36.73,0,*58
1485439518.34,20823,9.63,73874.8,-5.05,-37.15,-36.73,0,*5A
1485439519.6,20824,9.63,73878.8,-5.07,-37.09,-36.67,0,*57
1485439520.87,20825,9.63,73878.5,-5.07,-37.09,-36.67,0,*56
1485439522.11,20826,9.63,73872.5,-5.09,-37.21,-36.73,0,*54
1485439523.36,20827,9.63,73872.8,-5.07,-37.63,-37.27,0,*5D
1485439524.58,20828,9.63,73874.3,-5.07,-37.33,-36.85,0,*5E
1485439525.85,20829,9.63,73874.5,-5.07,-37.09,-36.67,0,*5A
1485439527.12,20830,9.63,73874.5,-5.07,-36.91,-36.37,0,*57
1485439528.35,20831,9.63,73874.8,-5.07,-37.33,-36.85,0,*56
1485439529.63,20832,9.63,73870.3,-5.07,-37.51,-37.09,0,*54
1485439530.88,20833,9.63,73874.8,-5.07,-37.63,-37.27,0,*58
1485439532.11,20834,9.63,73874.0,-5.07,-37.33,-36.85,0,*53
1485439533.33,20835,9.63,73874.5,-5.07,-37.45,-36.85,0,*53
1485439534.59,20836,9.63,73870.3,-5.07,-37.51,-36.97,0,*56
1485439535.81,20837,9.63,73870.0,-5.07,-37.33,-36.85,0,*50
1485439537.05,20838,9.63,73874.5,-5.09,-37.21,-36.73,0,*5B
1485439538.29,20839,9.63,73876.3,-5.09,-37.21,-36.73,0,*5A
1485439539.55,20840,9.63,73878.0,-5.07,-36.85,-36.37,0,*55
1485439540.81,20841,9.63,73872.0,-5.07,-37.09,-36.73,0,*51
1485439542.04,20842,9.63,73876.0,-5.07,-37.27,-36.67,0,*5B
1485439543.3,20843,9.63,73872.3,-5.07,-36.67,-36.13,0,*5C
1485439544.54,20844,9.63,73874.0,-5.07,-36.55,-36.01,0,*59
1485439545.78,20845,9.63,73872.5,-5.07,-36.55,-36.01,0,*58
1485439547.02,20846,9.63,73874.0,-5.07,-36.97,-36.55,0,*54
1485439548.23,20847,9.63,73878.5,-5.05,-37.27,-36.97,0,*53
1485439549.47,20848,9.63,73868.5,-5.07,-37.27,-36.67,0,*51
1485439550.7,20849,9.63,73870.0,-5.07,-36.73,-36.31,0,*53
1485439551.96,20850,9.63,73868.0,-5.07,-37.45,-37.09,0,*55
1485439553.24,20851,9.63,73868.8,-5.07,-37.51,-37.09,0,*51
1485439554.49,20852,9.63,73872.8,-5.07,-37.45,-37.09,0,*57
1485439555.75,20853,9.56,73868.8,-5.07,-37.51,-36.97,0,*55
1485439556.98,20854,9.63,73870.3,-5.07,-36.97,-36.31,0,*55
1485439558.24,20855,9.63,73870.5,-5.07,-36.91,-36.31,0,*52
1485439559.48,20856,9.63,73872.8,-5.07,-37.27,-36.67,0,*5E
1485439560.75,20857,9.63,73872.8,-5.07,-36.91,-36.37,0,*56
1485439561.97,20858,9.63,73872.8,-5.05,-36.73,-36.31,0,*51
1485439563.2,20859,9.63,73870.5,-5.07,-37.45,-36.97,0,*5A
1485439564.43,20860,9.63,73874.0,-5.05,-37.51,-36.97,0,*57
1485439565.66,20861,9.63,73874.3,-5.07,-37.45,-36.85,0,*52
1485439566.92,20862,9.63,73874.0,-5.07,-36.97,-36.49,0,*5F
1485439568.17,20863,9.63,73874.5,-5.05,-36.91,-36.37,0,*53
1485439569.43,20864,9.63,73874.5,-5.07,-36.91,-36.31,0,*50
1485439570.69,20865,9.63,73874.8,-5.07,-37.09,-36.67,0,*52
1485439571.93,20866,9.63,73874.3,-5.07,-37.27,-36.73,0,*58
1485439573.15,20867,9.63,73874.0,-5.07,-37.33,-36.85,0,*55
1485439574.39,20868,9.63,73874.8,-5.07,-37.15,-36.55,0,*53
1485439575.61,20869,9.63,73874.5,-5.05,-37.15,-36.67,0,*51
1485439576.84,20870,9.63,73872.5,-5.05,-36.97,-36.49,0,*5E
1485439578.08,20871,9.63,73872.5,-5.07,-36.85,-36.31,0,*51
1485439579.3,20872,9.63,73876.8,-5.05,-36.67,-36.01,0,*5F
1485439580.51,20873,9.63,73876.5,-5.05,-36.85,-36.31,0,*51
1485439581.77,20874,9.63,73880.3,-5.05,-36.91,-36.49,0,*5C
1485439583.02,20875,9.63,73876.8,-5.05,-37.09,-36.55,0,*50
1485439584.25,20876,9.63,73882.3,-5.05,-36.91,-36.31,0,*51
1485439585.49,20877,9.63,73880.8,-5.05,-36.67,-36.13,0,*59
1485439586.71,20878,9.63,73882.0,-5.05,-36.73,-36.31,0,*53
1485439587.94,20879,9.63,73878.8,-5.05,-36.73,-36.13,0,*52
1485439589.15,20880,9.63,73880.3,-5.01,-36.67,-36.07,0,*50
1485439590.41,20881,9.63,73878.8,-5.03,-36.91,-36.31,0,*5F
1485439591.66,20882,9.63,73878.8,-5.03,-36.91,-36.43,0,*59
1485439592.95,20883,9.63,73876.3,-5.03,-36.91,-36.25,0,*58
1485439594.18,20884,9.63,73876.3,-5.01,-36.91,-36.31,0,*58
1485439595.47,20885,9.63,73878.5,-5.03,-37.21,-36.61,0,*54
1485439596.72,20886,9.63,73876.8,-5.03,-37.57,-37.09,0,*59
1485439598.01,20887,9.63,73874.3,-5.03,-37.21,-36.61,0,*56
1485439599.29,20888,9.63,73874.5,-5.03,-37.09,-36.49,0,*59
1485439600.49,20889,9.63,73876.3,-5.01,-37.03,-36.43,0,*5A
1485439601.7,20890,9.63,73876.5,-5.01,-37.03,-36.43,0,*52
1485439602.96,20891,9.63,73876.3,-5.03,-37.09,-36.43,0,*5B
1485439604.17,20892,9.63,73876.3,-5.01,-36.85,-36.31,0,*5A
1485439605.43,20893,9.63,73876.3,-5.01,-37.21,-36.61,0,*51
1485439606.66,20894,9.63,73878.0,-5.03,-37.03,-36.31,0,*51
1485439607.92,20895,9.63,73876.5,-5.03,-36.67,-36.13,0,*53
1485439609.15,20896,9.63,73876.0,-4.97,-36.73,-36.07,0,*5C
1485439610.38,20897,9.63,73878.5,-5.01,-36.67,-36.13,0,*53
1485439611.66,20898,9.63,73876.5,-5.03,-36.79,-36.25,0,*54
1485439612.93,20899,9.63,73878.3,-5.03,-36.85,-36.25,0,*56
1485439614.18,20900,9.63,73880.5,-5.01,-36.79,-36.13,0,*53
1485439615.41,20901,9.63,73880.8,-5.01,-36.85,-36.49,0,*5E
1485439616.67,20902,9.63,73880.8,-5.01,-36.79,-36.25,0,*54
1485439617.87,20903,9.63,73880.3,-5.01,-37.03,-36.43,0,*59
1485439619.14,20904,9.63,73884.0,-4.97,-36.61,-36.01,0,*53
1485439620.38,20905,9.63,73882.0,-4.97,-36.55,-36.01,0,*55
1485439621.64,20906,9.63,73876.3,-4.97,-37.03,-36.37,0,*51
1485439622.9,20907,9.63,73876.3,-4.97,-36.79,-36.07,0,*5F
1485439624.13,20908,9.63,73874.3,-4.97,-37.57,-37.03,0,*58
1485439625.39,20909,9.63,73872.0,-4.97,-37.75,-37.21,0,*59
1485439626.68,20910,9.63,73880.0,-4.97,-37.93,-37.51,0,*5E
1485439627.94,20911,9.63,73876.8,-5.03,-38.05,-37.63,0,*52
1485439629.17,20912,9.63,73882.3,-5.01,-38.17,-37.63,0,*50
1485439630.4,20913,9.63,73880.8,-5.01,-37.93,-37.45,0,*56
1485439631.62,20914,9.63,73878.0,-5.01,-37.27,-36.79,0,*50
1485439632.9,20915,9.63,73878.5,-5.03,-37.39,-36.91,0,*5A
1485439634.16,20916,9.63,73878.0,-5.01,-37.63,-37.21,0,*5E
1485439635.44,20917,9.63,73878.3,-5.03,-37.93,-37.39,0,*5B
1485439636.68,20918,9.63,73882.3,-5.05,-37.69,-37.27,0,*58
1485439637.88,20919,9.63,73880.3,-5.05,-38.05,-37.45,0,*58
1485439639.14,20920,9.63,73882.3,-5.07,-38.23,-37.87,0,*5A
1485439640.38,20921,9.63,73878.5,-5.05,-37.81,-37.27,0,*54
1485439641.59,20922,9.63,73882.3,-5.05,-37.33,-36.73,0,*5E
1485439642.81,20923,9.63,73882.8,-5.07,-37.45,-36.85,0,*55
1485439644.05,20924,9.63,73884.0,-5.07,-37.15,-36.67,0,*5B
1485439645.28,20925,9.63,73880.8,-5.07,-37.27,-36.67,0,*5B
1485439646.52,20926,9.63,73882.3,-5.05,-37.15,-36.49,0,*57
1485439647.76,20927,9.63,73882.5,-5.05,-36.91,-36.31,0,*54
1485439649.0,20928,9.63,73880.8,-5.05,-36.91,-36.31,0,*5B
1485439650.26,20929,9.63,73882.3,-5.05,-37.09,-36.49,0,*55
1485439651.54,20930,9.63,73878.5,-5.03,-37.09,-36.61,0,*51
1485439652.77,20931,9.63,73878.5,-5.03,-37.75,-37.03,0,*5E
1485439654.02,20932,9.63,73872.8,-5.03,-37.75,-37.21,0,*5D
1485439655.28,20933,9.63,73876.8,-5.03,-38.17,-37.63,0,*51
1485439656.57,20934,9.63,73876.5,-5.07,-38.11,-37.63,0,*54
1485439657.81,20935,9.63,73872.3,-5.05,-38.05,-37.51,0,*53
1485439659.07,20936,9.63,73874.3,-5.05,-37.51,-37.09,0,*53
1485439660.3,20937,9.63,73870.3,-5.07,-37.15,-36.55,0,*58
1485439661.52,20938,9.63,73876.0,-5.05,-36.73,-36.01,0,*55
1485439662.78,20939,9.63,73872.0,-5.07,-37.15,-36.49,0,*5B
1485439664.06,20940,9.63,73876.3,-5.07,-37.09,-36.49,0,*58
1485439665.32,20941,9.63,73882.3,-5.07,-37.63,-37.15,0,*5D
1485439666.55,20942,9.63,73878.8,-5.05,-37.99,-37.45,0,*5C
1485439667.78,20943,9.63,73882.0,-5.07,-37.87,-37.45,0,*50
1485439669.01,20944,9.63,73882.3,-5.07,-37.45,-36.73,0,*5D
1485439670.27,20945,9.63,73874.8,-5.07,-37.51,-36.97,0,*53
1485439671.53,20946,9.63,73874.8,-5.07,-37.81,-37.45,0,*53
1485439672.76,20947,9.63,73878.0,-5.09,-38.29,-37.87,0,*5F
1485439674.02,20948,9.63,73880.8,-5.09,-38.67,-38.11,0,*5A
1485439675.25,20949,9.63,73880.8,-5.09,-38.55,-38.11,0,*5A
1485439676.48,20950,9.63,73882.5,-5.09,-38.17,-37.69,0,*54
1485439677.73,20951,9.63,73884.5,-5.11,-37.93,-37.45,0,*51
1485439678.95,20952,9.63,73886.3,-5.11,-37.57,-36.97,0,*54
1485439680.22,20953,9.63,73882.3,-5.11,-37.21,-36.67,0,*5B
1485439681.48,20954,9.63,73880.0,-5.11,-37.03,-36.49,0,*50
1485439682.72,20955,9.63,73878.8,-5.09,-37.21,-36.55,0,*55
1485439683.95,20956,9.63,73880.3,-5.11,-37.03,-36.43,0,*58
1485439685.21,20957,9.63,73884.3,-5.11,-37.03,-36.49,0,*53
1485439686.44,20958,9.63,73886.0,-5.09,-36.79,-36.19,0,*5C
1485439687.65,20959,9.63,73882.3,-5.09,-37.15,-36.55,0,*5E
1485439688.91,20960,9.63,73882.5,-5.09,-37.21,-36.79,0,*5D
1485439690.14,20961,9.63,73878.3,-5.09,-36.97,-36.37,0,*5A
1485439691.4,20962,9.63,73878.8,-5.09,-36.91,-36.37,0,*5F
1485439692.66,20963,9.63,73878.0,-5.07,-36.67,-36.13,0,*5F
1485439693.92,20964,9.63,73880.3,-5.07,-36.73,-36.13,0,*5D
1485439695.17,20965,9.63,73878.5,-5.07,-36.91,-36.31,0,*50
1485439696.43,20966,9.63,73876.0,-5.05,-37.09,-36.49,0,*5E
1485439697.69,20967,9.63,73878.0,-5.07,-37.63,-36.97,0,*52
1485439698.92,20968,9.63,73876.5,-5.07,-37.33,-36.97,0,*58
1485439700.15,20969,9.63,73874.3,-5.07,-37.15,-36.67,0,*52
1485439701.39,20970,9.63,73878.5,-5.07,-37.27,-36.73,0,*5E
1485439702.64,20971,9.63,73874.0,-5.07,-37.15,-36.49,0,*57
1485439703.86,20972,9.63,73876.5,-5.05,-37.15,-36.67,0,*5A
1485439705.08,20973,9.63,73876.5,-5.07,-37.33,-36.85,0,*51
1485439706.33,20974,9.63,73872.8,-5.07,-37.51,-36.85,0,*52